Regional Weather Roundup
Issued by NWS State College, PA

Home | Current Version | Previous Version | Text Only | Print | Product List | Glossary On
Versions: 1 2 3 4 5 6 7 8 9 10 11 12 13 14 15 16 17 18 19 20 21 22 23 24 25 26 27 28 29 30 31 32 33 34 35 36 37 38 39 40 41 42 43 44 45 46 47 48 49 50
000
ASUS41 KCTP 310710
RWRCTP

REGIONAL WEATHER ROUNDUP
NATIONAL WEATHER SERVICE STATE COLLEGE PA
200 AM EST SAT JAN 31 2015

Note: "fair" indicates few or no clouds below 12,000 feet with no
significant weather and/or obstructions to visibility.

* = STATION THAT DOES NOT REPORT PRECIPITATION /E.G. RAIN...SNOW...ETC/
    THUNDER OR FOG.

PAZ002>004-007>009-013>016-020>023-029>032-310800-
WESTERN PENNSYLVANIA

CITY           SKY/WX    TMP DP  RH WIND       PRES   REMARKS
ERIE           CLOUDY    15   7  70 W5        30.37F WCI   8
MEADVILLE      CLEAR      7   3  84 W5        30.31F WCI  -2
FRANKLIN*      MOCLDY     9   1  72 W3        30.32S
NEW CASTLE     FAIR       4   1  87 CALM      30.39S
BEAVER COUNTY  NOT AVBL
BUTLER*        MOCLDY     9   3  78 W3        30.37R
PITTSBURGH INT CLEAR      6   3  87 W5        30.37S WCI  -3
PITTSBURGH     CLEAR      8   0  69 W8        30.36R WCI  -4
INDIANA*       CLOUDY    12   5  73 W9        30.36R WCI   0
LATROBE        MOCLDY    10   5  79 SW6       30.38S WCI   1
WASHINGTON CO* CLEAR      1  -2  85 CALM      30.39S
$$

PAZ004>006-010>012-017>019-024>028-033>037-041-042-045-046-049>053-310800-
CENTRAL PENNSYLVANIA

CITY           SKY/WX    TMP DP  RH WIND       PRES   REMARKS
BRADFORD       MIX PCPN   5  -1  76 NW18      30.19S WCI -15
DUBOIS         CLOUDY     8   2  76 NW13G23   30.24R WCI  -8
CLEARFIELD     CLOUDY     8   0  69 W8        30.27R WCI  -4
JOHNSTOWN      LGT SNOW   7   1  76 W15G30    30.19R WCI -10
ALTOONA        CLOUDY    22   4  46 NW17G28   30.25R WCI   8
STATE COLLEGE  PTCLDY     8  -2  63 W7        30.27R WCI  -3
WILLIAMSPORT   PTCLDY    10  -3  55 W14       30.27R WCI  -6
SELINSGROVE    CLEAR     11  -2  56 NW13      30.28R WCI  -4
FT INDIANTOWN  CLEAR     13  -2  51 W13G33    30.22R WCI  -2
CAPITAL CITY   CLEAR     14  -1  51 NW14G26   30.26R WCI  -1
HARRISBURG     CLEAR     14   0  53 NW21G29   30.25R WCI  -4
YORK           CLEAR     14  -2  49 W6        30.25R WCI   5
$$

PAZ038>040-043-044-047-048-054-055-060>062-067>071-310800-
EASTERN PENNSYLVANIA

CITY           SKY/WX    TMP DP  RH WIND       PRES   REMARKS
SCRANTON       CLOUDY    11  -1  58 NW17G33   30.15R WCI  -6
MOUNT POCONO   LGT SNOW   6  -2  69 NW24G37   29.94R WCI -16
ALLENTOWN      CLEAR     13  -3  49 NW20G26   30.15R WCI  -5
QUAKERTOWN*    SUNNY     12   0  57 NW12G18   30.13R WCI  -2
READING        CLEAR     13  -1  54 NW28G37   30.18R WCI  -8
LANCASTER      CLEAR     13  -2  51 NW10      30.22R WCI   0
COATESVILLE    SUNNY     14   1  57 NW21G32   30.15R WCI  -4
POTTSTOWN      CLEAR     13  -1  54 W13G25    30.17R WCI  -2
BLUE BELL      CLEAR     18   3  53 W7G16     30.14R WCI   8
DOYLESTOWN     CLEAR     12  -1  56 NW10G33   30.12R WCI  -1
WILLOW GROVE   NOT AVBL
NORTH PHILA    CLEAR     17   0  47 NW18G24   30.16R WCI   1
PHILADELPHIA   CLEAR     18  -1  43 NW20G32   30.18R WCI   2
$$



USA.gov is the U.S. government's official web portal to all federal, state and local government web resources and services.